GPS BIIA-10 (PRN 32) 1 20959U 90103A 10071.82161873 .00000007 00000-0 10000-3 0 6092 2 20959 55.0044 272.1780 0131095 301.0249 57.7648 2.00573626141295 GPS BIIA-11 (PRN 24) 1 21552U 91047A 10072.06774582 -.00000021 00000-0 10000-3 0 6024 2 21552 54.3909 210.1861 0050277 330.1128 29.5097 2.00420952136887 GPS BIIA-14 (PRN 26) 1 22014U 92039A 10070.73782377 -.00000086 00000-0 10000-3 0 5326 2 22014 56.7956 330.9540 0191555 60.8479 301.0910 2.00720893123004 GPS BIIA-15 (PRN 27) 1 22108U 92058A 10071.23227938 -.00000078 00000-0 10000-3 0 4212 2 22108 56.0139 24.1852 0219264 276.6287 80.8767 2.00565017128196 GPS BIIA-21 (PRN 09) 1 22700U 93042A 10072.24516842 -.00000075 00000-0 10000-3 0 7659 2 22700 56.1259 25.5575 0205019 87.9843 274.3488 2.00572112122377 GPS BIIA-23 (PRN 04) 1 22877U 93068A 10072.38652090 -.00000022 00000-0 10000-3 0 951 2 22877 53.8224 207.3969 0090207 34.9801 325.5600 2.00566141120022 GPS BIIA-24 (PRN 06) 1 23027U 94016A 10072.09440990 .00000003 00000-0 10000-3 0 920 2 23027 53.5294 144.4172 0062347 294.2623 65.1472 2.00564039117325 GPS BIIA-25 (PRN 03) 1 23833U 96019A 10071.11110142 -.00000007 00000-0 10000-3 0 2810 2 23833 53.1144 140.4539 0127301 57.0091 304.2665 2.00560615102285 GPS BIIA-26 (PRN 10) 1 23953U 96041A 10072.50329836 .00000006 00000-0 10000-3 0 7637 2 23953 54.6816 268.5510 0090925 36.6474 323.9899 2.00588440100102 GPS BIIA-27 (PRN 30) 1 24320U 96056A 10071.88089528 .00000031 00000-0 10000-3 0 5033 2 24320 54.7304 84.7595 0117306 84.5460 276.8552 2.00551769 98758 GPS BIIR-02 (PRN 13) 1 24876U 97035A 10071.97688216 -.00000079 00000-0 10000-3 0 2520 2 24876 56.9196 331.0841 0039463 94.3039 266.1925 2.00574730 92626 GPS BIIA-28 (PRN 08) 1 25030U 97067A 10071.11192703 -.00000064 00000-0 10000-3 0 1641 2 25030 56.8467 31.2324 0109161 178.8884 181.1302 2.00559081 90505 GPS BIIR-03 (PRN 11) 1 25933U 99055A 10071.75302309 -.00000034 00000-0 10000-3 0 7055 2 25933 50.9131 194.0907 0103840 45.1100 315.6919 2.00556356 76436 GPS BIIR-04 (PRN 20) 1 26360U 00025A 10071.85510201 .00000007 00000-0 10000-3 0 7994 2 26360 53.7517 265.5487 0041209 73.4836 286.9872 2.00564929 72133 GPS BIIR-05 (PRN 28) 1 26407U 00040A 10072.18789805 .00000039 00000-0 10000-3 0 7454 2 26407 55.5476 89.1910 0160793 247.5110 110.8362 2.00564688 70813 GPS BIIR-06 (PRN 14) 1 26605U 00071A 10071.78899680 -.00000079 00000-0 10000-3 0 7529 2 26605 56.5397 329.8697 0051523 241.2957 118.2308 2.00559369 68406 GPS BIIR-07 (PRN 18) 1 26690U 01004A 10072.15439603 .00000004 00000-0 10000-3 0 6365 2 26690 53.7648 268.6237 0111268 226.2940 132.7954 2.00563431 66823 GPS BIIR-08 (PRN 16) 1 27663U 03005A 10072.00761826 .00000038 00000-0 10000-3 0 156 2 27663 55.6495 88.7496 0058901 342.8681 16.9853 2.00558205 52171 GPS BIIR-09 (PRN 21) 1 27704U 03010A 10072.07787497 -.00000023 00000-0 10000-3 0 9229 2 27704 53.4456 208.0523 0162180 216.7320 142.1075 2.00559442 50969 GPS BIIR-10 (PRN 22) 1 28129U 03058A 10071.69960043 .00000005 00000-0 10000-3 0 5214 2 28129 53.6325 268.9298 0052945 250.0075 109.4420 2.00564826 45660 GPS BIIR-11 (PRN 19) 1 28190U 04009A 10072.14780604 -.00000003 00000-0 10000-3 0 4705 2 28190 54.8747 151.6672 0062490 348.1794 11.7305 2.00559948 43840 GPS BIIR-12 (PRN 23) 1 28361U 04023A 10071.93880228 -.00000077 00000-0 10000-3 0 2923 2 28361 55.4941 327.7076 0063720 176.0287 184.0753 2.00558434 41926 GPS BIIR-13 (PRN 02) 1 28474U 04045A 10072.43664586 -.00000022 00000-0 10000-3 0 1755 2 28474 53.8707 206.3655 0093533 171.4901 188.6256 2.00550446 39295 GPS BIIRM-1 (PRN 17) 1 28874U 05038A 10071.29184613 -.00000011 00000-0 10000-3 0 4383 2 28874 55.0107 148.5335 0052745 214.6340 145.0694 2.00575611 32697 GPS BIIRM-2 (PRN 31) 1 29486U 06042A 10070.39870163 .00000000 00000-0 10000-3 0 7594 2 29486 55.9330 27.4167 0077633 297.3022 61.9065 2.00568395 25365 GPS BIIRM-3 (PRN 12) 1 29601U 06052A 10072.34173710 .00000038 00000-0 10000-3 0 8092 2 29601 55.5758 87.7417 0034872 325.3164 34.5272 2.00555572 24322 GPS BIIRM-4 (PRN 15) 1 32260U 07047A 10072.14138919 -.00000075 00000-0 00000+0 0 5412 2 32260 54.6836 326.3253 0024308 338.8852 21.0636 2.00557129 17710 GPS BIIRM-5 (PRN 29) 1 32384U 07062A 10071.46844953 -.00000009 00000-0 10000-3 0 5672 2 32384 55.0255 148.9983 0031619 283.3191 76.3808 2.00549970 16424 GPS BIIRM-6 (PRN 07) 1 32711U 08012A 10072.06295656 -.00000073 00000-0 10000-3 0 4286 2 32711 55.6273 27.3950 0032555 180.4249 179.5625 2.00557989 14643 GPS BIIRM-7 (PRN 01) 1 34661U 09014A 10071.91712524 .00000035 00000-0 10000-3 0 3406 2 34661 55.2251 86.9622 0042490 48.1522 312.2694 2.00434179 7156 GPS BIIRM-8 (PRN 05) 1 35752U 09043A 10072.03051818 .00000009 00000-0 10000-3 0 1179 2 35752 54.9653 267.0700 0018093 13.3947 346.6711 2.00565389 4220